SBBV

Boa Vista International Airport

Airport
ICAO code
SBBV
IATA Code
BVB
Summary
ICAO Region
CARSAM
ICAO Territory
Location

Boa Vista, Roraima

Serving
Boa Vista
Elevation
276 ft
Coordinates
2° 50' 29" N , 60° 41' 32" W
KCC
Metar
SBBV 151000Z 23003KT 9999 SCT008 SCT020 BKN070 23/22 Q1015

Boa Vista-Atlas Brasil Cantanhede International Airport is the airport serving Boa Vista, Brazil. Since April 13, 2009 the airport is named after Atlas Brasil Cantanhede.

Climatology

Tropical savanna climate (Köppen climate classification Aw)

Runways

Designator Length Width Surface Rops
8/26 2700 45 ASP Yes/Yes

Airport map

Aerial View

SKYbrary Partners:

Safety knowledge contributed by: